• In Uzbekistan
  • List of Countries
  • For 7 days
  • Water Temperature
  • Satellite Maps
  • Weather Map
  • Weather Widgets
  • user-avatar
    Login

    Hourly Weather Artashat

    Today, 30 May, Tuesday

    Time Temperature Precipitation Wind Pressure Humidity
    00:00 +12°C° 0 mm 1 mps 604 mmHg 49%
    01:00 +12°C° 0 mm 1 mps 604 mmHg 49%
    02:00 +11°C° 0 mm 1 mps 604 mmHg 49%
    03:00 +11°C° 0 mm 1 mps 604 mmHg 49%
    04:00 +12°C° 0 mm 1 mps 604 mmHg 48%
    05:00 +13°C° 0 mm 1 mps 605 mmHg 47%
    06:00 +13°C° 0 mm 1 mps 605 mmHg 46%
    07:00 +16°C° 0 mm 2 mps 606 mmHg 40%
    08:00 +18°C° 0 mm 2 mps 606 mmHg 34%
    09:00 +20°C° 0 mm 2 mps 607 mmHg 28%
    10:00 +21°C° 0 mm 2 mps 607 mmHg 25%
    11:00 +22°C° 0 mm 3 mps 608 mmHg 22%
    12:00 +24°C° 0 mm 3 mps 608 mmHg 20%
    13:00 +24°C° 0 mm 3 mps 608 mmHg 20%
    14:00 +25°C° 0 mm 4 mps 607 mmHg 19%
    15:00 +25°C° 0 mm 4 mps 607 mmHg 19%
    16:00 +23°C° 0 mm 4 mps 607 mmHg 22%
    17:00 +22°C° 0 mm 3 mps 606 mmHg 24%
    18:00 +21°C° 0 mm 3 mps 606 mmHg 26%
    19:00 +19°C° 0 mm 3 mps 605 mmHg 30%
    20:00 +17°C° 0 mm 2 mps 604 mmHg 33%
    21:00 +15°C° 0 mm 2 mps 604 mmHg 37%
    22:00 +14°C° 0 mm 2 mps 603 mmHg 37%
    23:00 +13°C° 0 mm 2 mps 603 mmHg 38%

    Tomorrow, 31 May, Wednesday

    Time Temperature Precipitation Wind Pressure Humidity
    00:00 +13°C° 0 mm 2 mps 603 mmHg 39%
    01:00 +12°C° 0 mm 2 mps 602 mmHg 40%
    02:00 +12°C° 0 mm 2 mps 602 mmHg 40%
    03:00 +10°C° 0 mm 2 mps 602 mmHg 40%
    04:00 +12°C° 0 mm 2 mps 602 mmHg 40%
    05:00 +13°C° 0 mm 2 mps 602 mmHg 40%
    06:00 +13°C° 0 mm 2 mps 602 mmHg 40%
    07:00 +15°C° 0 mm 2 mps 603 mmHg 34%
    08:00 +18°C° 0 mm 2 mps 604 mmHg 28%
    09:00 +20°C° 0 mm 2 mps 604 mmHg 22%
    10:00 +21°C° 0 mm 2 mps 604 mmHg 20%
    11:00 +22°C° 0 mm 3 mps 604 mmHg 19%
    12:00 +24°C° 0 mm 3 mps 604 mmHg 18%
    13:00 +24°C° 0 mm 3 mps 604 mmHg 18%
    14:00 +23°C° 0 mm 4 mps 603 mmHg 18%
    15:00 +23°C° 0 mm 4 mps 603 mmHg 18%
    16:00 +22°C° 0 mm 3 mps 603 mmHg 20%
    17:00 +21°C° 0 mm 3 mps 602 mmHg 22%
    18:00 +20°C° 0 mm 2 mps 602 mmHg 24%
    19:00 +18°C° 0 mm 3 mps 602 mmHg 29%
    20:00 +16°C° 0 mm 3 mps 601 mmHg 33%
    21:00 +12°C° 0 mm 3 mps 601 mmHg 37%
    22:00 +12°C° 0 mm 3 mps 601 mmHg 39%
    23:00 +12°C° 0 mm 2 mps 600 mmHg 41%

    Day after tomorrow, 1 June, Thursday

    Time Temperature Precipitation Wind Pressure Humidity
    00:00 +10°C° 0 mm 2 mps 600 mmHg 43%
    01:00 +9°C° 0 mm 2 mps 600 mmHg 45%
    02:00 +9°C° 0 mm 2 mps 599 mmHg 47%
    03:00 +8°C° 0 mm 2 mps 599 mmHg 48%
    04:00 +9°C° 0 mm 2 mps 600 mmHg 48%
    05:00 +10°C° 0 mm 1 mps 600 mmHg 47%
    06:00 +11°C° 0 mm 1 mps 601 mmHg 46%
    07:00 +13°C° 0 mm 1 mps 601 mmHg 42%
    08:00 +14°C° 0 mm 1 mps 602 mmHg 37%
    09:00 +16°C° 0 mm 1 mps 602 mmHg 32%
    10:00 +18°C° 0.1 mm 1 mps 602 mmHg 30%
    11:00 +19°C° 0.1 mm 1 mps 602 mmHg 28%
    12:00 +20°C° 0.1 mm 1 mps 602 mmHg 26%
    13:00 +19°C° 0.1 mm 2 mps 602 mmHg 25%
    14:00 +20°C° 0.1 mm 2 mps 602 mmHg 25%
    15:00 +20°C° 0.1 mm 2 mps 602 mmHg 24%
    16:00 +19°C° 0.1 mm 3 mps 602 mmHg 26%
    17:00 +19°C° 0.1 mm 3 mps 602 mmHg 28%
    18:00 +18°C° 0.1 mm 3 mps 602 mmHg 31%
    19:00 +16°C° 0 mm 2 mps 601 mmHg 37%
    20:00 +14°C° 0 mm 2 mps 601 mmHg 43%
    21:00 +12°C° 0 mm 1 mps 601 mmHg 50%
    22:00 +12°C° 0 mm 1 mps 601 mmHg 52%
    23:00 +11°C° 0 mm 1 mps 601 mmHg 55%

    2 June, Friday

    Time Temperature Precipitation Wind Pressure Humidity
    00:00 +10°C° 0 mm 1 mps 600 mmHg 57%
    01:00 +10°C° 0 mm 1 mps 600 mmHg 60%
    02:00 +9°C° 0 mm 1 mps 600 mmHg 64%
    03:00 +8°C° 0 mm 1 mps 599 mmHg 67%
    04:00 +9°C° 0 mm 1 mps 600 mmHg 65%
    05:00 +10°C° 0 mm 1 mps 600 mmHg 63%
    06:00 +11°C° 0 mm 1 mps 601 mmHg 61%
    07:00 +12°C° 0 mm 1 mps 601 mmHg 55%
    08:00 +14°C° 0 mm 1 mps 602 mmHg 48%
    09:00 +15°C° 0 mm 2 mps 603 mmHg 42%
    10:00 +16°C° 0.1 mm 2 mps 603 mmHg 38%
    11:00 +17°C° 0.1 mm 2 mps 603 mmHg 35%
    12:00 +18°C° 0.1 mm 2 mps 603 mmHg 31%
    13:00 +19°C° 0.3 mm 2 mps 603 mmHg 30%
    14:00 +19°C° 0.3 mm 2 mps 603 mmHg 29%
    15:00 +20°C° 0.3 mm 2 mps 602 mmHg 28%
    16:00 +19°C° 0.2 mm 2 mps 602 mmHg 29%
    17:00 +19°C° 0.2 mm 2 mps 603 mmHg 30%
    18:00 +19°C° 0.2 mm 1 mps 603 mmHg 31%
    19:00 +16°C° 0 mm 2 mps 602 mmHg 36%
    20:00 +15°C° 0 mm 2 mps 602 mmHg 41%
    21:00 +13°C° 0 mm 2 mps 602 mmHg 45%
    22:00 +12°C° 0 mm 2 mps 602 mmHg 50%
    23:00 +10°C° 0 mm 2 mps 602 mmHg 54%

    3 June, Saturday

    Time Temperature Precipitation Wind Pressure Humidity
    00:00 +10°C° 0 mm 2 mps 601 mmHg 58%
    01:00 +9°C° 0 mm 2 mps 601 mmHg 62%
    02:00 +8°C° 0 mm 2 mps 601 mmHg 66%
    03:00 +8°C° 0 mm 2 mps 601 mmHg 70%
    04:00 +8°C° 0 mm 2 mps 602 mmHg 68%
    05:00 +9°C° 0 mm 2 mps 602 mmHg 66%
    06:00 +9°C° 0 mm 2 mps 603 mmHg 65%
    07:00 +12°C° 0 mm 2 mps 603 mmHg 58%
    08:00 +13°C° 0 mm 2 mps 604 mmHg 52%
    09:00 +15°C° 0 mm 2 mps 604 mmHg 45%
    10:00 +16°C° 0 mm 2 mps 604 mmHg 42%
    11:00 +17°C° 0 mm 2 mps 605 mmHg 39%
    12:00 +18°C° 0 mm 2 mps 605 mmHg 36%
    13:00 +19°C° 0.1 mm 2 mps 605 mmHg 35%
    14:00 +19°C° 0.1 mm 2 mps 605 mmHg 33%
    15:00 +20°C° 0.1 mm 2 mps 605 mmHg 32%
    16:00 +19°C° 0.1 mm 2 mps 605 mmHg 33%
    17:00 +19°C° 0.1 mm 2 mps 605 mmHg 34%
    18:00 +18°C° 0.1 mm 2 mps 605 mmHg 35%
    19:00 +16°C° 0.1 mm 2 mps 604 mmHg 41%
    20:00 +14°C° 0.1 mm 2 mps 604 mmHg 46%
    21:00 +12°C° 0.1 mm 1 mps 604 mmHg 52%
    22:00 +12°C° 0 mm 1 mps 604 mmHg 55%
    23:00 +11°C° 0 mm 1 mps 603 mmHg 58%

    4 June, Sunday

    Time Temperature Precipitation Wind Pressure Humidity
    00:00 +10°C° 0 mm 1 mps 603 mmHg 62%
    01:00 +10°C° 0 mm 1 mps 603 mmHg 64%
    02:00 +9°C° 0 mm 1 mps 603 mmHg 67%
    03:00 +8°C° 0 mm 1 mps 603 mmHg 69%
    04:00 +9°C° 0 mm 1 mps 603 mmHg 67%
    05:00 +10°C° 0 mm 1 mps 604 mmHg 64%
    06:00 +11°C° 0 mm 1 mps 605 mmHg 61%
    07:00 +13°C° 0 mm 1 mps 605 mmHg 55%
    08:00 +15°C° 0 mm 1 mps 606 mmHg 49%
    09:00 +16°C° 0 mm 2 mps 606 mmHg 43%
    10:00 +17°C° 0 mm 2 mps 606 mmHg 40%
    11:00 +19°C° 0 mm 2 mps 607 mmHg 37%
    12:00 +20°C° 0 mm 2 mps 607 mmHg 34%
    13:00 +20°C° 0 mm 2 mps 607 mmHg 32%
    14:00 +21°C° 0 mm 2 mps 607 mmHg 31%
    15:00 +23°C° 0 mm 2 mps 607 mmHg 29%
    16:00 +21°C° 0 mm 2 mps 607 mmHg 31%
    17:00 +21°C° 0 mm 2 mps 607 mmHg 32%
    18:00 +20°C° 0 mm 2 mps 606 mmHg 33%
    19:00 +18°C° 0 mm 2 mps 606 mmHg 38%
    20:00 +16°C° 0 mm 1 mps 606 mmHg 42%
    21:00 +14°C° 0 mm 1 mps 605 mmHg 47%
    22:00 +13°C° 0 mm 1 mps 605 mmHg 50%
    23:00 +12°C° 0 mm 1 mps 605 mmHg 52%
    Show more